Regional Weather Roundup
Issued by NWS Cleveland, OH

Home | Current Version | Previous Version | Graphics & Text | Print | Product List | Glossary On
Versions: 1 2 3 4 5 6 7 8 9 10 11 12 13 14 15 16 17 18 19 20 21 22 23 24 25 26 27 28 29 30 31 32 33 34 35 36 37 38 39 40 41 42 43 44 45 46 47 48 49 50
000
ASUS41 KCLE 251100
RWRCLE
OHIO REGIONAL WEATHER ROUNDUP
NATIONAL WEATHER SERVICE WILMINGTON, OH
600 AM EST SUN JAN 25 2015

NOTE: "FAIR" INDICATES FEW OR NO CLOUDS BELOW 12,000 FEET WITH NO
SIGNIFICANT WEATHER AND/OR OBSTRUCTIONS TO VISIBILITY.

OHZ001>008-015>018-024>027-034-035-043-044-251200-
   NORTHWEST OHIO

CITY           SKY/WX    TMP DP  RH WIND       PRES   REMARKS
DEFIANCE       CLOUDY    35  32  88 CALM      29.72R
FINDLAY        CLOUDY    35  31  85 SE5       29.71R
TOLEDO EXPRESS CLOUDY    33  31  92 NE5       29.72R FOG     WCI  29
TOLEDO EXEC    CLOUDY    35  31  85 CALM      29.73S
LIMA           CLOUDY    35  30  82 S7        29.70S WCI  29
$$

OHZ009>014-019>023-028>033-038-089-251200-
   NORTHEAST OHIO

CITY           SKY/WX    TMP DP  RH WIND       PRES   REMARKS
CLE-HOPKINS    CLOUDY    33  32  96 CALM      29.76S FOG
CLE-LAKEFRONT  LGT SNOW  33  31  92 SW6       29.74S FOG     WCI  28
CUY CO. ARPT   NOT AVBL
LORAIN-ELYRIA  CLOUDY    34  32  92 W3        29.74R
ASHTABULA      FLURRIES  29  26  89 NE7       29.76R WCI  22
AKRON-CANTON   CLOUDY    34  30  85 SW7       29.73R FOG     WCI  28
WOOSTER        NOT AVBL
MANSFIELD      CLOUDY    34  32  92 S5        29.72S WCI  30
YOUNGSTOWN     LGT SNOW  33  32  96 W3        29.72R FOG
$$

OHZ042-051>053-060>062-070>072-077>081-251200-
  SOUTHWEST OHIO

CITY           SKY/WX    TMP DP  RH WIND       PRES   REMARKS
CINC-COVINGTON CLOUDY    36  30  79 S8        29.72F
CINC-LUNKEN    CLOUDY    30  29  96 CALM      29.75F
HAMILTON       CLOUDY    33  30  88 E5        29.74F WCI  29
DAYTON         NOT AVBL
WRIGHT-PAT AFB CLOUDY    32  29  89 S6        29.73S WCI  26
DAYTON GENERAL MOCLDY    33  29  85 S7        29.71F WCI  27
WILMINGTON     PTCLDY    31  27  85 S7        29.73F FOG     WCI  24
$$

OHZ036-037-039>041-045>050-054>059-063>069-073>076-082>088-251200-
  CENTRAL AND SOUTHEAST OHIO

CITY           SKY/WX    TMP DP  RH WIND       PRES   REMARKS
COLUMBUS       CLOUDY    34  29  82 S3        29.74F
OSU AIRPORT    CLOUDY    34  30  85 S5        29.73F WCI  30
BOLTON FIELD   NOT AVBL
RICKENBACK AFB NOT AVBL
NEWARK         CLOUDY    35  30  82 S5        29.74F
MARION         CLOUDY    34  29  82 S8        29.72S HAZE    WCI  27
LANCASTER      CLOUDY    36  31  82 S5        29.75S
ZANESVILLE     CLOUDY    32  29  88 S5        29.75F FOG     WCI  27
NEW PHILLY     CLOUDY    35  30  82 CALM      29.76S
$$



USA.gov is the U.S. government's official web portal to all federal, state and local government web resources and services.